EW9763 Weather Reports


Display with metric or nautical units.
time (UTC)temp
F
wind
direction
speed
MPH
gust
MPH
rain 1hr
in
rain 24hr
in
rain mn
in
humidity
%
barometer
mb
20260831024522 73 84 0.0 3.0 0.00 0.00 0.00 89 1012.8
20260831024022 73 83 1.0 3.0 0.00 0.00 0.00 89 1012.8
20260831023523 73 83 1.0 3.0 0.00 0.00 0.00 88 1012.7
20260831023251 73 83 1.0 3.0 0.00 0.00 0.00 88 1012.7
20260831022516 73 83 1.0 4.0 0.00 0.00 0.00 88 1012.7
20260831022017 74 82 1.0 4.0 0.00 0.00 0.00 88 1012.7
20260831021516 74 69 1.0 3.0 0.00 0.00 0.00 88 1012.7
20260831021015 74 69 0.0 2.0 0.00 0.00 0.00 88 1012.9
20260831020513 74 69 1.0 2.0 0.00 0.00 0.00 88 1012.8
20260831020244 74 69 1.0 4.0 0.00 0.00 0.00 88 1012.8
20260831015509 74 69 2.0 4.0 0.00 0.00 0.00 88 1012.8
20260831015003 74 66 2.0 5.0 0.00 0.00 0.00 88 1012.6
20260831014730 74 65 3.0 7.0 0.00 0.00 0.00 89 1012.4
20260831014230 74 70 3.0 7.0 0.00 0.00 0.00 89 1012.5
20260831013458 74 74 3.0 6.0 0.00 0.00 0.00 89 1012.4
20260831012958 74 82 3.0 4.0 0.00 0.00 0.00 89 1012.4
20260831012459 74 80 2.0 4.0 0.00 0.00 0.00 88 1012.5
20260831011959 74 80 2.0 4.0 0.00 0.00 0.00 88 1012.6
20260831011726 74 78 2.0 4.0 0.00 0.00 0.00 88 1012.7
20260831010955 75 71 1.0 4.0 0.00 0.00 0.00 88 1012.6
20260831010455 75 46 0.0 2.0 0.00 0.00 0.00 87 1012.5
20260831005954 75 46 1.0 4.0 0.00 0.00 0.00 87 1012.4
20260831005455 75 46 1.0 4.0 0.00 0.00 0.00 87 1012.4
20260831004954 75 51 1.0 3.0 0.00 0.00 0.00 86 1012.2
20260831004457 75 51 2.0 5.0 0.00 0.00 0.00 86 1012.1
20260831003951 75 9 3.0 5.0 0.00 0.00 0.00 86 1012.1
20260831003450 75 19 3.0 6.0 0.00 0.00 0.00 86 1012.1
20260831002950 76 22 3.0 8.0 0.00 0.00 0.00 86 1012.1
20260831002451 76 42 4.0 9.0 0.00 0.00 0.00 85 1012.2
20260831001951 76 34 4.0 10.0 0.00 0.00 0.00 85 1012.1
20260831001447 76 17 4.0 10.0 0.00 0.00 0.00 84 1012.0
20260831001218 76 35 2.0 5.0 0.00 0.00 0.00 83 1012.0
20260831000447 77 51 2.0 6.0 0.00 0.00 0.00 83 1011.9
20260830235946 77 44 2.0 6.0 0.00 0.00 0.00 83 1011.8
20260830235446 77 39 2.0 5.0 0.00 0.00 0.00 83 1012.1
20260830234946 77 36 2.0 5.0 0.00 0.00 0.00 83 1012.0
20260830234442 77 22 3.0 4.0 0.00 0.00 0.00 82 1012.1
20260830233943 77 62 2.0 4.0 0.00 0.00 0.00 82 1012.0
20260830233443 77 69 2.0 4.0 0.00 0.00 0.00 82 1011.9
20260830232941 77 64 2.0 4.0 0.00 0.00 0.00 82 1011.9
20260830232437 77 78 2.0 4.0 0.00 0.00 0.00 81 1011.8
20260830231939 77 76 2.0 4.0 0.00 0.00 0.00 81 1011.9
20260830231432 77 78 2.0 5.0 0.00 0.00 0.00 80 1011.7
20260830230932 77 26 3.0 7.0 0.00 0.00 0.00 80 1011.9
20260830230432 77 13 4.0 9.0 0.00 0.00 0.00 79 1011.8
20260830230202 77 61 5.0 10.0 0.00 0.00 0.00 78 1011.7
20260830225430 78 5 4.0 10.0 0.00 0.00 0.00 78 1011.8
20260830225200 78 26 4.0 13.0 0.00 0.00 0.00 78 1011.7
20260830224426 78 50 5.0 13.0 0.00 0.00 0.00 78 1011.7
20260830223924 78 315 4.0 9.0 0.00 0.00 0.00 78 1011.6
20260830223427 78 42 3.0 7.0 0.00 0.00 0.00 78 1011.2
20260830223422 78 19 3.0 8.0 0.00 0.00 0.00 78 1011.5
20260830222421 78 69 3.0 6.0 0.00 0.00 0.00 78 1011.1
20260830221923 78 56 3.0 5.0 0.00 0.00 0.00 78 1011.0
20260830221646 78 68 2.0 5.0 0.00 0.00 0.00 77 1010.9
20260830220919 79 86 3.0 6.0 0.00 0.00 0.00 77 1011.1
20260830220915 78 33 2.0 6.0 0.00 0.00 0.00 77 1011.0
20260830215914 79 355 3.0 8.0 0.00 0.00 0.00 77 1011.3
20260830215412 79 30 3.0 10.0 0.00 0.00 0.00 76 1011.3
20260830214912 79 65 3.0 10.0 0.00 0.00 0.00 77 1011.4
20260830214405 79 51 3.0 7.0 0.00 0.00 0.00 77 1011.4
20260830213906 79 90 3.0 8.0 0.00 0.00 0.00 77 1011.5
20260830213637 79 9 3.0 8.0 0.00 0.00 0.00 76 1011.4
20260830212911 80 44 4.0 10.0 0.00 0.00 0.00 75 1011.0
20260830212906 79 11 4.0 8.0 0.00 0.00 0.00 76 1011.2
20260830211906 80 83 3.0 10.0 0.00 0.00 0.00 74 1011.1
20260830211406 82 77 2.0 8.0 0.00 0.00 0.00 73 1011.1
20260830211131 82 149 1.0 2.0 0.00 0.00 0.00 71 1011.2
20260830210359 82 149 1.0 2.0 0.00 0.00 0.00 71 1011.3
20260830205859 81 149 1.0 3.0 0.00 0.00 0.00 71 1011.2
20260830205358 81 149 1.0 3.0 0.00 0.00 0.00 71 1011.2
20260830205130 82 153 1.0 3.0 0.00 0.00 0.00 71 1011.4
20260830204356 82 176 1.0 2.0 0.00 0.00 0.00 71 1011.6
20260830203851 82 178 2.0 4.0 0.00 0.00 0.00 70 1011.6
20260830203351 82 181 2.0 4.0 0.00 0.00 0.00 69 1011.6
20260830202852 82 190 1.0 4.0 0.00 0.00 0.00 69 1011.7
20260830202352 82 194 1.0 2.0 0.00 0.00 0.00 70 1011.7
20260830201853 82 194 1.0 3.0 0.00 0.00 0.00 70 1011.7
20260830201353 82 194 1.0 4.0 0.00 0.00 0.00 70 1011.7
20260830200850 82 186 2.0 4.0 0.00 0.00 0.00 70 1011.8
20260830200352 82 182 1.0 4.0 0.00 0.00 0.00 69 1011.7
20260830200122 82 186 2.0 5.0 0.00 0.00 0.00 69 1011.8
20260830195351 82 214 2.0 5.0 0.00 0.00 0.00 69 1011.9
20260830194849 82 187 2.0 5.0 0.00 0.00 0.00 69 1011.9
20260830194348 82 202 3.0 8.0 0.00 0.00 0.00 69 1011.8
20260830194119 82 173 3.0 8.0 0.00 0.00 0.00 68 1011.9
20260830193343 83 195 2.0 6.0 0.00 0.00 0.00 68 1011.9
20260830193117 83 207 2.0 5.0 0.00 0.00 0.00 68 1011.9
20260830192345 83 213 2.0 6.0 0.00 0.00 0.00 66 1012.0
20260830191843 82 180 2.0 7.0 0.00 0.00 0.00 67 1012.0
20260830191341 82 194 2.0 7.0 0.00 0.00 0.00 67 1011.9
20260830190841 83 178 2.0 5.0 0.00 0.00 0.00 67 1012.0
20260830190339 83 184 3.0 6.0 0.00 0.00 0.00 67 1012.0
20260830185838 83 213 3.0 7.0 0.00 0.00 0.00 66 1011.9
20260830185339 83 158 2.0 7.0 0.00 0.00 0.00 66 1011.9
20260830184837 83 232 2.0 7.0 0.00 0.00 0.00 66 1011.7
20260830184335 83 184 3.0 7.0 0.00 0.00 0.00 65 1011.6
20260830183836 83 275 2.0 6.0 0.00 0.00 0.00 65 1011.6
20260830183334 84 169 2.0 6.0 0.00 0.00 0.00 65 1011.5
20260830182831 84 106 3.0 7.0 0.00 0.00 0.00 67 1011.4
20260830182329 83 107 3.0 8.0 0.00 0.00 0.00 66 1011.3
20260830181830 83 281 4.0 10.0 0.00 0.00 0.00 65 1011.1
20260830181329 83 148 3.0 10.0 0.00 0.00 0.00 65 1011.2
20260830181102 83 338 2.0 6.0 0.00 0.00 0.00 64 1011.1
20260830180324 83 136 2.0 6.0 0.00 0.00 0.00 66 1011.2
20260830175823 83 172 1.0 6.0 0.00 0.00 0.00 67 1011.3
20260830175323 83 171 1.0 5.0 0.00 0.00 0.00 67 1011.3
20260830175054 83 185 2.0 6.0 0.00 0.00 0.00 65 1011.5
20260830174323 82 219 2.0 6.0 0.00 0.00 0.00 66 1011.5
20260830174055 82 300 2.0 5.0 0.00 0.00 0.00 65 1011.4
20260830173321 83 146 3.0 6.0 0.00 0.00 0.00 66 1011.3
20260830172819 83 159 2.0 6.0 0.00 0.00 0.00 65 1011.3
20260830172320 83 180 2.0 5.0 0.00 0.00 0.00 67 1011.3
20260830171819 82 242 3.0 7.0 0.00 0.00 0.00 66 1011.5
20260830171317 82 319 3.0 7.0 0.00 0.00 0.00 66 1011.5
20260830170819 82 197 3.0 7.0 0.00 0.00 0.00 67 1011.5
20260830170313 82 164 2.0 7.0 0.00 0.00 0.00 65 1011.4
20260830165813 82 159 2.0 5.0 0.00 0.00 0.00 68 1011.4
20260830165315 82 228 3.0 7.0 0.00 0.00 0.00 68 1011.5
20260830164815 82 194 2.0 5.0 0.00 0.00 0.00 67 1011.8
20260830164811 82 178 3.0 7.0 0.00 0.00 0.00 66 1011.6
20260830163811 81 267 2.0 6.0 0.00 0.00 0.00 68 1011.6
20260830163311 81 191 3.0 10.0 0.00 0.00 0.00 71 1011.6
20260830163307 81 206 3.0 7.0 0.00 0.00 0.00 69 1011.6
20260830162307 81 202 3.0 10.0 0.00 0.00 0.00 69 1011.8
20260830161807 80 200 3.0 7.0 0.00 0.00 0.00 70 1011.9
20260830161307 80 268 3.0 9.0 0.00 0.00 0.00 70 1012.0
20260830160807 80 207 4.0 9.0 0.00 0.00 0.00 71 1012.1
20260830160308 79 160 3.0 7.0 0.00 0.00 0.00 70 1012.2
20260830155805 79 231 3.0 9.0 0.00 0.00 0.00 70 1012.2
20260830155306 80 227 3.0 9.0 0.00 0.00 0.00 69 1012.3
20260830154809 80 215 3.0 8.0 0.00 0.00 0.00 70 1012.1
20260830154302 79 172 3.0 8.0 0.00 0.00 0.00 70 1012.0
20260830153804 80 211 3.0 7.0 0.00 0.00 0.00 70 1011.9
20260830153303 80 229 3.0 10.0 0.00 0.00 0.00 69 1012.0
20260830152804 79 235 4.0 12.0 0.00 0.00 0.00 70 1011.9
20260830152259 79 197 5.0 12.0 0.00 0.00 0.00 72 1012.0
20260830151759 78 184 5.0 10.0 0.00 0.00 0.00 73 1012.1
20260830151259 78 175 3.0 7.0 0.00 0.00 0.00 74 1012.2
20260830150759 77 193 3.0 9.0 0.00 0.00 0.00 75 1012.2
20260830150257 77 236 3.0 9.0 0.00 0.00 0.00 75 1012.2
20260830145759 77 211 3.0 8.0 0.00 0.00 0.00 75 1012.1
20260830145526 76 181 3.0 8.0 0.00 0.00 0.00 77 1012.0
20260830144756 77 188 2.0 5.0 0.00 0.00 0.00 79 1012.0
20260830144253 76 161 2.0 7.0 0.00 0.00 0.00 80 1012.0
20260830143753 76 165 2.0 7.0 0.00 0.00 0.00 80 1011.9
20260830143253 76 160 2.0 5.0 0.00 0.00 0.00 81 1011.9
20260830142752 76 140 2.0 7.0 0.00 0.00 0.00 82 1011.8
20260830142252 75 143 3.0 8.0 0.00 0.00 0.00 82 1011.9
20260830142246 74 151 3.0 8.0 0.00 0.00 0.00 84 1011.8
20260830141244 74 165 2.0 6.0 0.00 0.00 0.00 84 1012.0
20260830140743 73 166 3.0 6.0 0.00 0.00 0.00 84 1012.0
20260830140243 73 161 2.0 6.0 0.00 0.00 0.00 85 1012.1
20260830135744 73 178 3.0 7.0 0.00 0.00 0.00 86 1012.3
20260830135244 72 169 3.0 7.0 0.00 0.00 0.00 86 1012.3
20260830134743 72 144 2.0 5.0 0.00 0.00 0.00 87 1012.3
20260830134242 72 138 2.0 6.0 0.00 0.00 0.00 87 1012.1
20260830133745 71 169 2.0 6.0 0.00 0.00 0.00 87 1012.3
20260830133240 71 165 2.0 5.0 0.00 0.00 0.00 87 1012.4
20260830132739 71 163 2.0 7.0 0.00 0.00 0.00 87 1012.4
20260830132240 71 128 2.0 7.0 0.00 0.00 0.00 87 1012.4
20260830131739 71 136 2.0 6.0 0.00 0.00 0.00 87 1012.5
20260830131238 71 172 3.0 6.0 0.00 0.00 0.00 87 1012.5
20260830131012 71 171 2.0 6.0 0.00 0.00 0.00 88 1012.5
20260830130507 70 150 2.0 5.0 0.00 0.00 0.00 88 1012.5
20260830125735 70 153 2.0 6.0 0.00 0.00 0.00 89 1012.3
20260830125235 70 136 2.0 6.0 0.00 0.00 0.00 89 1012.1
20260830124739 69 142 2.0 6.0 0.00 0.00 0.00 90 1012.4
20260830124735 70 134 2.0 5.0 0.00 0.00 0.00 89 1012.3
20260830123736 69 144 2.0 6.0 0.00 0.00 0.00 90 1012.4
20260830123231 69 142 2.0 5.0 0.00 0.00 0.00 90 1012.5
20260830122731 69 141 2.0 4.0 0.00 0.00 0.00 90 1012.6
20260830122232 69 132 2.0 4.0 0.00 0.00 0.00 90 1012.4
20260830122002 69 132 2.0 5.0 0.00 0.00 0.00 90 1012.3
20260830121502 69 132 2.0 5.0 0.00 0.00 0.00 90 1012.3
20260830120732 69 139 3.0 7.0 0.00 0.00 0.00 90 1012.2
20260830120226 69 136 3.0 7.0 0.00 0.00 0.00 90 1012.2
20260830115728 69 130 2.0 5.0 0.00 0.00 0.00 90 1012.2
20260830115227 69 135 2.0 7.0 0.00 0.00 0.00 90 1012.1
20260830114728 69 140 2.0 7.0 0.00 0.00 0.00 90 1012.0
20260830114228 69 157 2.0 6.0 0.00 0.00 0.00 90 1012.0
20260830113728 69 141 3.0 5.0 0.00 0.00 0.00 90 1011.9
20260830113223 69 140 3.0 7.0 0.00 0.00 0.00 90 1011.8
20260830112720 69 134 3.0 5.0 0.00 0.00 0.00 90 1011.8
20260830112451 69 136 3.0 5.0 0.00 0.00 0.00 90 1011.8
20260830111718 69 134 3.0 7.0 0.00 0.00 0.00 90 1011.9
20260830111219 69 132 3.0 7.0 0.00 0.00 0.00 90 1011.9
20260830110720 69 131 3.0 5.0 0.00 0.00 0.00 90 1011.9
20260830110218 69 112 2.0 4.0 0.00 0.00 0.00 90 1011.8
20260830105719 69 113 2.0 7.0 0.00 0.00 0.00 90 1011.7
20260830105444 69 111 3.0 7.0 0.00 0.00 0.00 89 1011.6
20260830104945 69 126 2.0 7.0 0.00 0.00 0.00 89 1011.6
20260830104210 69 142 2.0 7.0 0.00 0.00 0.00 89 1011.7
20260830103710 69 141 2.0 7.0 0.00 0.00 0.00 89 1011.7
20260830103208 69 146 2.0 7.0 0.00 0.00 0.00 89 1011.7
20260830102710 69 166 2.0 5.0 0.00 0.00 0.00 89 1011.7
20260830102208 69 137 3.0 5.0 0.00 0.00 0.00 89 1011.7
20260830101705 69 140 3.0 5.0 0.00 0.00 0.00 89 1011.8
20260830101206 69 131 3.0 5.0 0.00 0.00 0.00 89 1011.8
20260830100702 69 134 2.0 4.0 0.00 0.00 0.00 89 1011.8
20260830100201 69 133 2.0 5.0 0.00 0.00 0.00 89 1011.9
20260830095704 69 136 2.0 5.0 0.00 0.00 0.00 89 1012.1
20260830095700 69 136 2.0 5.0 0.00 0.00 0.00 89 1012.0
20260830094657 69 140 2.0 7.0 0.00 0.00 0.00 89 1012.1
20260830094157 69 137 3.0 7.0 0.00 0.00 0.00 89 1012.2
20260830093658 69 134 3.0 7.0 0.00 0.00 0.00 89 1012.3
20260830093158 69 130 3.0 7.0 0.00 0.00 0.00 89 1012.4
20260830092657 69 134 3.0 5.0 0.00 0.00 0.00 89 1012.4
20260830092158 69 138 2.0 4.0 0.00 0.00 0.00 89 1012.5
20260830091658 69 165 2.0 5.0 0.00 0.00 0.00 89 1012.5
20260830091653 69 138 2.0 5.0 0.00 0.00 0.00 89 1012.6
20260830090925 69 138 3.0 5.0 0.00 0.00 0.00 88 1012.6
20260830090153 70 134 3.0 5.0 0.00 0.00 0.00 88 1012.6
20260830085653 70 142 3.0 5.0 0.00 0.00 0.00 88 1012.6
20260830085152 70 138 2.0 4.0 0.00 0.00 0.00 88 1012.8
20260830084654 70 140 2.0 4.0 0.00 0.00 0.00 88 1012.8
20260830084154 70 140 2.0 5.0 0.00 0.00 0.00 88 1012.6
20260830083649 70 128 2.0 5.0 0.00 0.00 0.00 87 1012.6
20260830083149 70 127 2.0 6.0 0.00 0.00 0.00 87 1012.5
20260830082650 70 126 2.0 6.0 0.00 0.00 0.00 87 1012.6
20260830082151 70 139 2.0 4.0 0.00 0.00 0.00 87 1012.6
20260830081647 70 152 2.0 6.0 0.00 0.00 0.00 87 1012.6
20260830081148 70 171 2.0 6.0 0.00 0.00 0.00 87 1012.6
20260830080640 70 161 2.0 5.0 0.00 0.00 0.00 88 1012.7
20260830080140 70 171 2.0 6.0 0.00 0.00 0.00 88 1012.7
20260830075636 70 125 2.0 6.0 0.00 0.00 0.00 87 1012.7
20260830075134 70 133 2.0 6.0 0.00 0.00 0.00 87 1012.6
20260830074635 70 150 2.0 6.0 0.00 0.00 0.00 87 1012.6
20260830074130 70 132 2.0 6.0 0.00 0.00 0.00 87 1012.7
20260830073629 70 150 2.0 6.0 0.00 0.00 0.00 87 1012.8
20260830073128 70 155 2.0 4.0 0.00 0.00 0.00 87 1012.7
20260830072900 70 138 1.0 4.0 0.00 0.00 0.00 87 1012.8
20260830072129 70 140 1.0 4.0 0.00 0.00 0.00 87 1012.9
20260830071630 70 151 2.0 4.0 0.00 0.00 0.00 86 1012.9
20260830071126 70 160 2.0 7.0 0.00 0.00 0.00 86 1012.9
20260830070624 70 167 2.0 7.0 0.00 0.00 0.00 86 1013.0
20260830070123 70 142 3.0 8.0 0.00 0.00 0.00 86 1013.0
20260830065853 71 165 3.0 8.0 0.00 0.00 0.00 86 1013.0
20260830065354 71 167 2.0 7.0 0.00 0.00 0.00 86 1013.0
20260830064623 71 165 3.0 8.0 0.00 0.00 0.00 86 1013.1
20260830064121 71 161 3.0 8.0 0.00 0.00 0.00 85 1013.2
20260830063618 71 163 3.0 8.0 0.00 0.00 0.00 85 1013.2
20260830063120 71 178 3.0 8.0 0.00 0.00 0.00 85 1013.2
20260830062619 71 181 3.0 7.0 0.00 0.00 0.00 85 1013.3
20260830062120 71 161 3.0 8.0 0.00 0.00 0.00 85 1013.3
20260830061620 71 160 4.0 8.0 0.00 0.00 0.00 85 1013.3
20260830061119 71 173 5.0 12.0 0.00 0.00 0.00 85 1013.4
20260830060615 71 148 5.0 12.0 0.00 0.00 0.00 85 1013.4
20260830060115 71 176 4.0 10.0 0.00 0.00 0.00 85 1013.5
20260830055844 71 149 5.0 12.0 0.00 0.00 0.00 85 1013.5
20260830055112 71 132 5.0 14.0 0.00 0.00 0.00 85 1013.6
20260830054612 71 163 4.0 15.0 0.00 0.00 0.00 85 1013.6
20260830054113 71 135 5.0 15.0 0.00 0.00 0.00 85 1013.6
20260830053841 71 169 4.0 9.0 0.00 0.00 0.00 85 1013.6
20260830053108 71 165 4.0 9.0 0.00 0.00 0.00 85 1013.7
20260830052609 71 175 5.0 12.0 0.00 0.00 0.00 85 1013.7
20260830052108 71 180 5.0 12.0 0.00 0.00 0.00 85 1013.8
20260830051606 71 175 5.0 11.0 0.00 0.00 0.00 85 1013.8
20260830051107 71 153 5.0 12.0 0.00 0.00 0.00 85 1013.9
20260830050602 71 153 5.0 12.0 0.00 0.00 0.00 85 1013.9
20260830050058 71 157 5.0 9.0 0.00 0.00 0.00 85 1014.0
20260830045829 71 122 5.0 9.0 0.00 0.00 0.00 85 1014.1
20260830045058 71 167 4.0 9.0 0.00 0.00 0.00 85 1014.1
20260830044559 71 159 4.0 9.0 0.00 0.00 0.00 85 1014.1
20260830044059 71 166 4.0 10.0 0.00 0.00 0.00 85 1014.0
20260830043552 71 167 5.0 10.0 0.00 0.00 0.00 85 1014.1
20260830043052 71 173 4.0 9.0 0.00 0.00 0.00 85 1014.1
20260830042820 71 179 4.0 9.0 0.00 0.00 0.00 86 1014.1
20260830042051 71 139 4.0 10.0 0.00 0.00 0.00 86 1014.1
20260830041820 71 140 5.0 10.0 0.00 0.00 0.00 86 1014.2
20260830041051 71 153 5.0 11.0 0.00 0.00 0.00 86 1014.2
20260830040818 71 165 4.0 11.0 0.00 0.00 0.00 87 1014.2
20260830040046 71 144 4.0 12.0 0.00 0.00 0.00 87 1014.2
20260830035549 71 157 4.0 12.0 0.00 0.00 0.00 87 1014.3
20260830035046 71 149 4.0 10.0 0.00 0.00 0.00 87 1014.3
20260830034544 70 153 4.0 10.0 0.00 0.00 0.00 87 1014.3
20260830034045 70 172 4.0 12.0 0.00 0.00 0.00 87 1014.4
20260830033544 70 150 4.0 12.0 0.00 0.00 0.00 87 1014.4
20260830033040 70 139 4.0 10.0 0.00 0.00 0.00 87 1014.5
20260830032541 70 145 4.0 11.0 0.00 0.00 0.00 87 1014.7
20260830032038 70 139 4.0 11.0 0.00 0.00 0.00 87 1014.5
20260830031537 70 148 3.0 9.0 0.00 0.00 0.00 87 1014.5
20260830031037 70 136 3.0 8.0 0.00 0.00 0.00 87 1014.5
20260830030530 70 136 3.0 8.0 0.00 0.00 0.00 87 1014.5
20260830030030 70 128 3.0 8.0 0.00 0.00 0.00 87 1014.5
20260830025802 70 169 2.0 8.0 0.00 0.00 0.00 87 1014.7
20260830025030 70 135 2.0 5.0 0.00 0.00 0.00 87 1014.7